Flag for India Weather past 2 weeks in Faridkot, Punjab, India

Now
88 °F

Clear.


Feels Like: 96 °F
Forecast: 72 / 94 °F
Wind: 5 mph from South

Location: Lahore Airport

Current Time: Sep 23, 2014 at 10:29:18 AM

Latest Report: Sep 23, 2014 at 9:59 AM


Visibility: 2 mi

Pressure: 29.71 "Hg

Humidity: 62%

Dew point: 73 °F

Location of FaridkotLocation

Historic Weather in Faridkot — Graph

°F

Faridkot temperature yesterday

Maximum temperature yesterday: 99 °F (at 3:59 PM)
Minimum temperature yesterday: 77 °F (at 4:30 AM)
Average temperature yesterday: 86 °F

Past Weeks' High & Low Weather Summary

 TemperatureHumidityPressure
High99 °F (Sep 22, 3:59 PM)100% (Sep 14, 12:30 PM)29.86 "Hg (Sep 14, 12:30 PM)
Low72 °F (Sep 15, 5:30 AM)44% (Sep 21, 4:25 PM)29.56 "Hg (Sep 14, 5:30 PM)
Average85 °F71%29.68 "Hg
* Reported Sep 8 8:55 AM — Sep 23 8:55 AM, Faridkot, Weather by CustomWeather, © 2014

Note: Actual official high and low records may vary slightly from our data, if they occured in-between our weather recording intervals... More about our weather records

Advertising

Faridkot weather history for previous 24 hours

 ConditionsComfort  
Time TempWeatherWind HumidityBarometerVisibility
8:55 AM
Sep 23
84 °FClear.3 mph74%29.71 "Hg2 mi
8:25 AM82 °FClear.No wind79%29.71 "Hg1 mi
7:45 AM79 °FClear.6 mph94%29.68 "Hg2 mi
6:32 AM79 °FFog.6 mph94%29.68 "Hg2 mi
5:30 AM81 °FClear.5 mph94%29.68 "Hg2 mi
4:55 AM82 °FClear.3 mph84%29.68 "Hg2 mi
4:25 AM82 °FClear.3 mph84%29.68 "Hg2 mi
3:55 AM82 °FClear.3 mph84%29.68 "Hg2 mi
3:25 AM82 °FClear.No wind84%29.68 "Hg2 mi
2:55 AM82 °FClear.No wind84%29.68 "Hg2 mi
2:25 AM82 °FClear.3 mph84%29.68 "Hg2 mi
1:55 AM82 °FClear.No wind84%29.68 "Hg2 mi
1:25 AM82 °FClear.No wind84%29.71 "Hg2 mi
12:55 AM82 °FClear.3 mph84%29.71 "Hg2 mi
12:25 AM82 °FClear.3 mph84%29.71 "Hg2 mi
11:55 PM
Sep 22
84 °FClear.No wind79%29.71 "Hg2 mi
11:25 PM84 °FClear.No wind79%29.71 "Hg2 mi
10:55 PM84 °FClear.No wind79%29.71 "Hg2 mi
10:25 PM84 °FClear.3 mph79%29.71 "Hg2 mi
9:55 PM86 °FClear.3 mph75%29.71 "Hg2 mi
9:25 PM86 °FClear.3 mph75%29.71 "Hg2 mi
8:55 PM88 °FPassing clouds.6 mph70%29.71 "Hg2 mi
8:25 PM88 °FPassing clouds.3 mph70%29.68 "Hg2 mi
7:55 PM90 °FPassing clouds.6 mph63%29.68 "Hg2 mi
7:25 PM90 °FPassing clouds.6 mph63%29.68 "Hg2 mi
6:55 PM90 °FPassing clouds.6 mph59%29.68 "Hg2 mi
6:25 PM91 °FScattered clouds.6 mph56%29.65 "Hg2 mi
5:55 PM91 °FScattered clouds.6 mph59%29.65 "Hg2 mi
5:25 PM93 °FScattered clouds.8 mph56%29.65 "Hg1 mi
4:55 PM93 °FScattered clouds.6 mph56%29.65 "Hg1 mi
4:29 PM95 °FScattered clouds.7 mph53%29.65 "Hg1 mi
3:59 PM99 °FScattered clouds.5 mph44%29.65 "Hg2 mi
2:59 PM97 °FScattered clouds.3 mph44%29.68 "Hg3 mi
2:29 PM97 °FScattered clouds.3 mph47%29.68 "Hg3 mi
1:59 PM97 °FScattered clouds.3 mph47%29.68 "Hg3 mi
1:29 PM97 °FScattered clouds.6 mph47%29.71 "Hg3 mi
12:59 PM93 °FScattered clouds.5 mph53%29.71 "Hg3 mi
12:29 PM93 °FScattered clouds.5 mph53%29.71 "Hg3 mi
11:59 AM91 °FPassing clouds.No wind56%29.74 "Hg3 mi
11:29 AM90 °FPassing clouds.No wind59%29.74 "Hg3 mi
10:59 AM88 °FClear.No wind62%29.74 "Hg3 mi
10:29 AM88 °FClear.No wind62%29.74 "Hg3 mi
Weather by CustomWeather, © 2014

See weather overviewHow to use our weather pages